Weather History for Mazatlan Airport, Mexico

Change the Weather History Date:

Tuesday, October 18, 2011

  Actual Average Record
Temperature  
Mean Temperature 82 °F -  
Max Temperature 91 °F 86 °F 91 °F (2004)
Min Temperature 73 °F 69 °F 64 °F (2007)
Cooling Degree Days 17    
Growing Degree Days 32 (Base 50)    
Moisture  
Dew Point 73 °F    
Average Humidity 79    
Maximum Humidity 94    
Minimum Humidity 59    
Precipitation  
Precipitation 0.00 in - - ()
Sea Level Pressure  
Sea Level Pressure 29.78 in    
Wind  
Wind Speed 6 mph ()    
Max Wind Speed 16 mph    
Max Gust Speed -    
Visibility 9.4 miles    
Events      
Averages and records for this station are not official NWS values.
T = Trace of Precipitation, MM = Missing Value Source: Averaged Metar Reports

Daily Weather History Graph

Daily Weather History Graph

Search for Another Location

Airport:

Trip Planner

Search our weather history database for the weather conditions in past years. The results will help you decide how hot, cold, wet, or windy it might be!

Date:

Astronomy

Oct. 18, 2011 Rise Set
Actual Time 7:03 AM MDT 6:36 PM MDT
Civil Twilight 6:40 AM MDT 6:59 PM MDT
Nautical Twilight 6:14 AM MDT 7:25 PM MDT
Astronomical Twilight 5:47 AM MDT 7:52 PM MDT
Moon 11:42 PM MDT (10/18) 12:32 PM MDT (10/18)
Length of Visible Light 12h 19m
Length of Day
11h 33m
Waning Gibbous, 64% of the Moon is Illuminated
Oct 18
Waning Gibbous
Oct 19
Last Quarter
Oct 26
New
Nov 2
First Quarter
Nov 10
Full

Hourly Weather History & Observations

Time (MDT) Temp. Heat Index Dew Point Humidity Pressure Visibility Wind Dir Wind Speed Gust Speed Precip Events Conditions
12:46 AM 75.2 °F - 71.6 °F 89% 29.84 in 8.0 mi ENE 3.5 mph - N/A   Mostly Cloudy
1:47 AM 75.2 °F - 71.6 °F 89% 29.82 in 8.0 mi East 4.6 mph - N/A   Mostly Cloudy
2:45 AM 75.2 °F - 71.6 °F 89% 29.81 in 10.0 mi NE 4.6 mph - N/A   Mostly Cloudy
3:44 AM 73.4 °F - 71.6 °F 94% 29.80 in 8.0 mi NE 4.6 mph - N/A   Mostly Cloudy
4:44 AM 73.4 °F - 71.6 °F 94% 29.80 in 8.0 mi North 5.8 mph - N/A   Mostly Cloudy
5:47 AM 73.4 °F - 71.6 °F 94% 29.84 in 8.0 mi NE 4.6 mph - N/A   Overcast
6:42 AM 73.4 °F - 71.6 °F 94% 29.81 in 8.0 mi NE 4.6 mph - N/A   Partly Cloudy
7:48 AM 75.2 °F - 71.6 °F 89% 29.82 in 10.0 mi NNE 5.8 mph - N/A   Scattered Clouds
8:42 AM 78.8 °F - 73.4 °F 83% 29.84 in 10.0 mi NNE 5.8 mph - N/A   Partly Cloudy
9:49 AM 84.2 °F 92.3 °F 75.2 °F 74% 29.84 in 10.0 mi NW 5.8 mph - N/A   Partly Cloudy
10:46 AM 87.8 °F 95.6 °F 73.4 °F 62% 29.81 in 10.0 mi WSW 6.9 mph - N/A   Scattered Clouds
11:53 AM 89.6 °F 98.2 °F 73.4 °F 59% 29.81 in 10.0 mi West 8.1 mph - N/A   Scattered Clouds
12:45 PM 91.4 °F 102.5 °F 75.2 °F 59% 29.77 in 10.0 mi WSW 11.5 mph - N/A   Partly Cloudy
1:42 PM 89.6 °F 98.2 °F 73.4 °F 59% 29.73 in 10.0 mi SW 12.7 mph - N/A   Partly Cloudy
2:40 PM 89.6 °F 99.8 °F 75.2 °F 62% 29.71 in 10.0 mi SW 13.8 mph - N/A   Partly Cloudy
3:40 PM 87.8 °F 97.6 °F 75.2 °F 66% 29.70 in 10.0 mi WSW 16.1 mph - N/A   Partly Cloudy
4:46 PM 87.8 °F 97.6 °F 75.2 °F 66% 29.70 in 10.0 mi WSW 11.5 mph - N/A   Clear
5:40 PM 86.0 °F 95.1 °F 75.2 °F 70% 29.70 in 10.0 mi West 11.5 mph - N/A   Clear
6:45 PM 82.4 °F 89.5 °F 75.2 °F 79% 29.72 in 10.0 mi West 8.1 mph - N/A   Partly Cloudy
7:45 PM 80.6 °F 85.4 °F 73.4 °F 79% 29.74 in 8.0 mi NW 6.9 mph - N/A   Clear
8:43 PM 80.6 °F 85.4 °F 73.4 °F 79% 29.77 in 10.0 mi NNW 6.9 mph - N/A   Clear
9:47 PM 78.8 °F - 73.4 °F 83% 29.77 in 10.0 mi NW 6.9 mph - N/A   Clear
10:45 PM 75.2 °F - 71.6 °F 89% 29.78 in 10.0 mi Calm Calm - N/A   Clear
11:45 PM 75.2 °F - 71.6 °F 89% 29.80 in 10.0 mi Calm Calm - N/A   Clear